Location: Unspecified
(52.0178°N, 0.0000°E)
Time: 09:05:22
(UTC+00:00)

O/OREOS (USA 219) - Pass Details

Date: 25 July 2019
Orbit: 621 x 646 km, 72.0° (Epoch: 22 May)

Event Time Altitude Azimuth Distance (km) Brightness Sun altitude
Exits shadow 03:14:21 - 188° (S) 2,574 ? -7.4°
Reaches altitude 10° 03:15:45 10° 184° (S) 2,030 ? -7.3°
Maximum altitude 03:20:07 47° 111° (ESE) 846 ? -6.8°
Drops below altitude 10° 03:24:30 10° 38° (NE) 2,030 ? -6.3°
Sets 03:26:49 0° 33° (NNE) 2,939 ? -6.1°
